Location: Blanot
(47.1713°N, 4.2340°E)
Time: 06:15:29
(UTC+00:00)

NOSS 2-1 (D) - Visible Passes

Search period start: 20 October 2020 00:00
Search period end: 30 October 2020 00:00
Orbit: 438 x 1764 km, 63.3° (Epoch: 09 October)

Date Brightness Start Highest point End Pass type
(mag) Time Alt. Az. Time Alt. Az. Time Alt. Az.
20 Oct 3.5 17:43:10 10° SW 17:46:27 55° NW 17:49:58 10° NNE visible
20 Oct 6.0 19:36:38 10° NW 19:38:00 12° NNW 19:38:03 12° NNW visible
21 Oct 5.7 18:49:13 10° WNW 18:51:25 16° NNW 18:53:24 11° N visible
22 Oct 5.1 18:02:11 10° W 18:04:58 23° NW 18:08:00 10° NNE visible
23 Oct 4.1 17:15:30 10° WSW 17:18:40 40° NW 17:22:06 10° NNE visible
23 Oct 6.0 19:09:41 10° NNW 19:10:27 10° NNW 19:11:15 10° N visible
24 Oct 5.8 18:21:58 10° NW 18:23:48 14° NNW 18:25:48 10° N visible
25 Oct 5.3 17:34:45 10° W 17:37:17 19° NNW 17:40:04 10° NNE visible
27 Oct 5.8 17:54:48 10° NW 17:56:14 12° NNW 17:57:44 10° N visible
28 Oct 5.4 17:07:24 10° WNW 17:09:39 16° NNW 17:12:05 10° NNE visible
